Back to catalog

COSMOS 1922

AliveMilitaryHEO
NORAD 18881·PAYLOAD·🇷🇺 Russia

Launched Feb 26, 1988 from Plesetsk Cosmodrome

Loading…

Next Passes (next 24 hours)

TLE

FreshSource: Space-Track

Epoch: Sep 13, 2026, 12:49 UTC

1 18881U 88013A   26256.53437150  .00000433  00000-0  00000-0 0  9995
2 18881  68.7817  67.1226 5926780  41.8484 350.7823  2.00834716282309

Track COSMOS 1922 in real time with AllMySat

Download on the App Store